FW9555 Weather Reports


time (UTC)temp
C
wind
direction
speed
KPH
gust
KPH
rain 1hr
cm
rain 24hr
cm
rain mn
cm
humidity
%
barometer
mb
20260505002304 18 261 0.0 0.0 0.00 0.00 0.00 49 1017.0
20260505001800 18 261 0.0 0.0 0.00 0.00 0.00 49 1016.9
20260505001257 19 261 0.0 0.0 0.00 0.00 0.00 48 1017.1
20260505000754 20 261 0.0 0.0 0.00 0.00 0.00 46 1017.2
20260505000252 20 261 0.0 0.0 0.00 0.00 0.00 46 1017.1
20260504235748 20 261 0.0 0.0 0.00 0.00 0.00 45 1016.8
20260504235245 21 261 0.0 0.0 0.00 0.00 0.00 45 1016.7
20260504234742 21 261 0.0 0.0 0.00 0.00 0.00 40 1016.8
20260504234239 22 261 0.0 0.0 0.00 0.00 0.00 40 1016.7
20260504233735 22 261 0.0 0.0 0.00 0.00 0.00 40 1016.7
20260504233231 23 279 0.0 0.0 0.00 0.00 0.00 39 1016.5
20260504232729 23 300 0.0 1.6 0.00 0.00 0.00 37 1016.6
20260504232226 25 0 0.0 0.0 0.00 0.00 0.00 37 1016.5
20260504231722 25 345 0.0 0.0 0.00 0.00 0.00 36 1016.5
20260504231219 27 345 0.0 0.0 0.00 0.00 0.00 34 1016.5
20260504230715 27 345 0.0 0.0 0.00 0.00 0.00 35 1016.2
20260504230214 27 345 0.0 0.0 0.00 0.00 0.00 32 1016.2
20260504225712 27 300 0.0 0.0 0.00 0.00 0.00 34 1016.5
20260504225208 27 270 0.0 1.6 0.00 0.00 0.00 34 1016.3
20260504224705 27 300 0.0 0.0 0.00 0.00 0.00 33 1016.5
20260504224203 27 249 0.0 3.2 0.00 0.00 0.00 31 1016.5
20260504223659 30 278 0.0 1.6 0.00 0.00 0.00 30 1016.5
20260504223154 30 279 0.0 1.6 0.00 0.00 0.00 31 1016.3
20260504222652 30 279 0.0 1.6 0.00 0.00 0.00 31 1016.6
20260504222148 30 270 0.0 1.6 0.00 0.00 0.00 31 1016.5
20260504221646 28 345 1.6 3.2 0.00 0.00 0.00 33 1016.5
20260504221143 28 270 0.0 1.6 0.00 0.00 0.00 28 1016.5
20260504220639 30 270 0.0 3.2 0.00 0.00 0.00 28 1016.7
20260504220137 30 345 0.0 1.6 0.00 0.00 0.00 30 1016.5
20260504215632 30 276 0.0 3.2 0.00 0.00 0.00 27 1016.4
20260504215130 29 276 0.0 3.2 0.00 0.00 0.00 29 1016.6
20260504214626 28 311 0.0 4.8 0.00 0.00 0.00 32 1016.5
20260504214122 29 285 1.6 3.2 0.00 0.00 0.00 29 1016.6
20260504213619 28 279 0.0 1.6 0.00 0.00 0.00 31 1016.7
20260504213116 29 294 0.0 1.6 0.00 0.00 0.00 30 1016.6
20260504212612 28 105 1.6 1.6 0.00 0.00 0.00 31 1016.6
20260504212109 29 12 3.2 11.3 0.00 0.00 0.00 28 1016.6
20260504211606 29 270 0.0 1.6 0.00 0.00 0.00 35 1016.9
20260504211103 30 294 0.0 3.2 0.00 0.00 0.00 35 1016.7
20260504210601 28 60 1.6 3.2 0.00 0.00 0.00 29 1016.9
20260504210056 29 297 0.0 1.6 0.00 0.00 0.00 30 1016.7
20260504205554 29 278 0.0 1.6 0.00 0.00 0.00 32 1016.5
20260504205052 28 63 0.0 0.0 0.00 0.00 0.00 31 1016.7
20260504204550 27 3 0.0 4.8 0.00 0.00 0.00 33 1017.0
20260504204049 29 279 0.0 3.2 0.00 0.00 0.00 34 1016.9
20260504203547 27 90 1.6 9.7 0.00 0.00 0.00 30 1017.0
20260504203044 28 99 0.0 3.2 0.00 0.00 0.00 30 1017.0
20260504202539 28 81 0.0 4.8 0.00 0.00 0.00 32 1017.3
20260504202036 28 287 0.0 3.2 0.00 0.00 0.00 32 1017.4
20260504201533 28 78 0.0 3.2 0.00 0.00 0.00 35 1017.3
20260504201031 28 324 3.2 4.8 0.00 0.00 0.00 30 1017.1
20260504200527 28 294 0.0 3.2 0.00 0.00 0.00 35 1017.2
20260504200024 28 90 0.0 4.8 0.00 0.00 0.00 32 1017.4
20260504195520 29 278 1.6 3.2 0.00 0.00 0.00 31 1017.4
20260504195017 27 306 4.8 4.8 0.00 0.00 0.00 31 1017.6
20260504194514 27 278 0.0 3.2 0.00 0.00 0.00 33 1017.5
20260504194009 28 81 0.0 9.7 0.00 0.00 0.00 32 1017.6
20260504193506 28 270 0.0 3.2 0.00 0.00 0.00 37 1017.4
20260504193005 28 60 0.0 1.6 0.00 0.00 0.00 32 1017.6
20260504192502 26 354 1.6 6.4 0.00 0.00 0.00 30 1017.7
20260504192001 28 14 0.0 1.6 0.00 0.00 0.00 32 1017.7
20260504191458 28 71 0.0 3.2 0.00 0.00 0.00 33 1017.8
20260504190953 28 66 0.0 1.6 0.00 0.00 0.00 34 1017.7
20260504190449 28 77 1.6 3.2 0.00 0.00 0.00 30 1017.8
20260504185946 29 291 0.0 3.2 0.00 0.00 0.00 33 1017.8
20260504185443 28 74 0.0 3.2 0.00 0.00 0.00 36 1017.9
20260504184939 28 0 0.0 1.6 0.00 0.00 0.00 33 1017.9
20260504184435 28 81 1.6 1.6 0.00 0.00 0.00 33 1018.0
20260504183931 28 66 0.0 4.8 0.00 0.00 0.00 33 1018.1
20260504183429 27 45 3.2 3.2 0.00 0.00 0.00 34 1018.3
20260504182927 27 81 1.6 3.2 0.00 0.00 0.00 31 1018.3
20260504182423 26 83 1.6 4.8 0.00 0.00 0.00 31 1018.3
20260504181920 26 8 0.0 6.4 0.00 0.00 0.00 39 1018.5
20260504181417 27 292 3.2 3.2 0.00 0.00 0.00 37 1018.5
20260504180916 27 283 0.0 0.0 0.00 0.00 0.00 36 1018.5
20260504180415 27 0 0.0 3.2 0.00 0.00 0.00 34 1018.3
20260504175912 26 66 0.0 1.6 0.00 0.00 0.00 36 1018.5
20260504175409 26 74 3.2 4.8 0.00 0.00 0.00 37 1018.3
20260504174907 26 329 6.4 6.4 0.00 0.00 0.00 36 1018.5
20260504174404 26 90 1.6 4.8 0.00 0.00 0.00 36 1018.6
20260504173901 27 74 0.0 3.2 0.00 0.00 0.00 39 1018.9
20260504173357 26 300 0.0 3.2 0.00 0.00 0.00 38 1018.9
20260504172855 25 84 0.0 8.0 0.00 0.00 0.00 42 1018.7
20260504172351 26 81 0.0 1.6 0.00 0.00 0.00 34 1018.9
20260504171847 26 74 0.0 1.6 0.00 0.00 0.00 38 1019.0
20260504171345 25 287 0.0 4.8 0.00 0.00 0.00 41 1019.0
20260504170842 25 276 0.0 3.2 0.00 0.00 0.00 39 1018.9
20260504170338 25 80 0.0 3.2 0.00 0.00 0.00 34 1019.3
20260504160257 22 77 0.0 0.0 0.00 0.00 0.00 46 1020.3
20260504150722 20 297 4.8 4.8 0.00 0.00 0.00 51 1020.9
20260504150219 19 354 0.0 3.2 0.00 0.00 0.00 47 1020.7
20260504141148 16 345 0.0 3.2 0.00 0.00 0.00 65 1020.6
20260504140645 16 8 0.0 1.6 0.00 0.00 0.00 64 1020.6
20260504140140 16 99 0.0 0.0 0.00 0.00 0.00 71 1020.5
20260504130609 11 54 0.0 0.0 0.00 0.00 0.00 79 1020.7
20260504130105 11 337 1.6 3.2 0.00 0.00 0.00 79 1020.6
20260504110456 5 126 0.0 1.6 0.00 0.00 0.00 98 1020.5
20260504100419 5 105 1.6 1.6 0.00 0.00 0.00 98 1019.8
20260504081812 6 75 0.0 0.0 0.00 0.00 0.00 95 1019.6
20260504081309 6 74 0.0 0.0 0.00 0.00 0.00 95 1019.6
20260504080804 6 98 0.0 1.6 0.00 0.00 0.00 95 1019.5
20260504080301 6 66 0.0 1.6 0.00 0.00 0.00 95 1019.4
20260504070229 7 74 0.0 0.0 0.00 0.00 0.00 93 1019.7
20260504060149 8 90 0.0 0.0 0.00 0.00 0.00 88 1019.8
20260504050617 8 82 0.0 0.0 0.00 0.00 0.00 86 1019.7
20260504050115 8 82 0.0 0.0 0.00 0.00 0.00 86 1019.9
20260504045612 8 74 0.0 0.0 0.00 0.00 0.00 86 1019.7
20260504045106 8 74 0.0 0.0 0.00 0.00 0.00 85 1019.8
20260504044605 8 74 0.0 1.6 0.00 0.00 0.00 85 1019.9
20260504044101 8 81 0.0 0.0 0.00 0.00 0.00 85 1019.7
20260504043558 8 81 0.0 0.0 0.00 0.00 0.00 85 1020.0
20260504043055 8 81 0.0 1.6 0.00 0.00 0.00 84 1019.8
20260504042552 8 60 0.0 1.6 0.00 0.00 0.00 84 1019.8
20260504042049 8 74 0.0 0.0 0.00 0.00 0.00 83 1020.0
20260504041545 9 74 0.0 0.0 0.00 0.00 0.00 83 1019.9
20260504041041 9 75 0.0 0.0 0.00 0.00 0.00 83 1020.0
20260504040539 9 8 0.0 1.6 0.00 0.00 0.00 83 1019.9
20260504040035 9 352 0.0 0.0 0.00 0.00 0.00 82 1020.3
20260504035532 9 352 0.0 0.0 0.00 0.00 0.00 82 1020.0
20260504035029 9 352 0.0 0.0 0.00 0.00 0.00 82 1020.0
20260504034527 9 90 0.0 0.0 0.00 0.00 0.00 81 1020.4
20260504034023 9 90 0.0 1.6 0.00 0.00 0.00 81 1020.4
20260504033521 9 69 0.0 1.6 0.00 0.00 0.00 81 1020.1
20260504033018 9 82 0.0 3.2 0.00 0.00 0.00 81 1020.0
20260504032515 9 54 0.0 0.0 0.00 0.00 0.00 80 1020.0
20260504032012 10 0 0.0 0.0 0.00 0.00 0.00 80 1020.1
20260504031509 10 14 0.0 1.6 0.00 0.00 0.00 80 1020.3
20260504031005 10 172 0.0 0.0 0.00 0.00 0.00 79 1020.4
20260504030503 10 15 0.0 0.0 0.00 0.00 0.00 79 1020.0
20260504025958 10 151 0.0 0.0 0.00 0.00 0.00 79 1020.4
20260504025455 10 151 0.0 1.6 0.00 0.00 0.00 79 1020.1
20260504024952 10 81 0.0 1.6 0.00 0.00 0.00 79 1020.1
20260504024449 10 81 0.0 0.0 0.00 0.00 0.00 78 1020.0
20260504023946 10 74 0.0 0.0 0.00 0.00 0.00 77 1019.9
20260504023443 10 90 0.0 0.0 0.00 0.00 0.00 77 1019.9
20260504022938 10 90 0.0 0.0 0.00 0.00 0.00 76 1020.0
20260504022435 10 81 0.0 0.0 0.00 0.00 0.00 76 1019.9
20260504021932 10 8 0.0 0.0 0.00 0.00 0.00 76 1019.8
20260504021429 10 0 0.0 0.0 0.00 0.00 0.00 75 1019.6
20260504020926 10 0 0.0 0.0 0.00 0.00 0.00 74 1019.8
20260504020423 10 0 0.0 0.0 0.00 0.00 0.00 73 1019.6
20260504015919 10 0 0.0 0.0 0.00 0.00 0.00 74 1019.4
20260504015415 10 0 0.0 0.0 0.00 0.00 0.00 74 1019.5
20260504014912 11 0 0.0 0.0 0.00 0.00 0.00 73 1019.4
20260504014408 11 0 0.0 0.0 0.00 0.00 0.00 71 1019.1
20260504013905 11 0 0.0 0.0 0.00 0.00 0.00 72 1019.1
20260504013403 11 0 0.0 0.0 0.00 0.00 0.00 70 1019.4
20260504012859 11 23 0.0 0.0 0.00 0.00 0.00 69 1019.2
20260504012357 11 0 0.0 0.0 0.00 0.00 0.00 70 1019.2
20260504011854 11 35 0.0 0.0 0.00 0.00 0.00 70 1019.1
20260504011350 11 35 0.0 0.0 0.00 0.00 0.00 67 1019.1
20260504010846 12 35 0.0 0.0 0.00 0.00 0.00 66 1019.0
20260504010342 12 35 0.0 0.0 0.00 0.00 0.00 66 1019.0
20260504005839 12 0 0.0 0.0 0.00 0.00 0.00 66 1018.8
20260504005336 12 0 0.0 0.0 0.00 0.00 0.00 64 1019.1
20260504004833 12 0 0.0 0.0 0.00 0.00 0.00 61 1018.9
20260504004331 13 0 0.0 0.0 0.00 0.00 0.00 61 1018.8
20260504003827 13 0 0.0 0.0 0.00 0.00 0.00 59 1019.0
20260504003324 13 0 0.0 0.0 0.00 0.00 0.00 58 1018.8
20260504002821 14 0 0.0 0.0 0.00 0.00 0.00 58 1018.9
20260504002318 15 0 0.0 0.0 0.00 0.00 0.00 57 1018.7